STARS-EC (47928 NORAD) Tracking and Keplerian Element Data

This shows tracking and keplerian element data for the satellite.

Feedback or suggestion? Click here.




ElementValue
Catalog47928
NameSTARS-EC
Epoch Orbit1556
Epoch Day173.65341107
Epoch Year2021
RAAN314.4294
Inclination51.6427
Eccentricity0.0005493
Argument of Perigee131.6378
Mean Anonmoly228.5083
Mean Motion15.51795265
Decay Rate0.00013111
L11 47928U 98067SE 21173.65341107 .00013111 00000-0 22273-3 0 9997
L22 47928 51.6427 314.4294 0005493 131.6378 228.5083 15.51795265 15565

Live tracking and technical data element details for STARS-EC (NORAD 47928). STARS-EC can be tracked NOW for your location showing map with azimuth and elevation plus other details from your city location.

Track the satellite on the map from your city or location and see movement details for azimuth, elevation, latitude, longitude, range, height, and movement on the map or in text.







IsCatalogInMostPopularTable: catalog: 47928, numindb: 46
Update: records affected: 1



GetName: 47928 STARS-EC

Hit Count: updated at: Thu, 24 Jun 2021 03:01:04 GMT